Weather reports worldwide

Advertisment
Cherbourg, France (7024): temperature & dewpoint: 17.04.2019 18:00:00 - 23.04.2019 18:00:00 (CEST)Cherbourg, France (7024): temperature 5cm: 17.04.2019 18:00:00 - 23.04.2019 18:00:00 (CEST)Cherbourg, France (7024): temperature -20cm & temperature -100cm: 17.04.2019 18:00:00 - 23.04.2019 18:00:00 (CEST)Cherbourg, France (7024): wind speed & gusts: 17.04.2019 18:00:00 - 23.04.2019 18:00:00 (CEST)Cherbourg, France (7024): wind direction: 17.04.2019 18:00:00 - 23.04.2019 18:00:00 (CEST)Cherbourg, France (7024): reduced air pressure: 17.04.2019 18:00:00 - 23.04.2019 18:00:00 (CEST)Cherbourg, France (7024): visibility: 17.04.2019 18:00:00 - 23.04.2019 18:00:00 (CEST)Cherbourg, France (7024): sunshine duration: 17.04.2019 18:00:00 - 23.04.2019 18:00:00 (CEST)Cherbourg, France (7024): precipitation: 17.04.2019 18:00:00 - 23.04.2019 18:00:00 (CEST)
Date & Time tt [°C] td [°C] tt 5cm [°C] tt -20cm [°C] tt -100cm [°C] ff [km/h] ff [kn] fx [km/h] fx [kn] dd ppp [hPa] vv [km] sd [min] rr [mm]
23.04.2019 18:00:00 16,6 9,3 17,5 11,8 10,0 4 2 11 6 NNE 994,6 20 0 0,0
23.04.2019 17:00:00 17,3 9,2 19,9 11,7 10,1 9 5 20 11 NE 994,9 19 10 0,0
23.04.2019 16:00:00 18,0 8,5 20,6 11,6 10,0 12 6 16 9 NE 995,2 16 14 0,0
23.04.2019 15:00:00 17,6 10,0 20,4 11,6 10,0 10 5 16 8 NNE 995,6 18 0 0,0
23.04.2019 14:00:00 19,2 8,8 20,9 11,5 10,0 8 4 16 9 S 995,9 19 0 0,0
23.04.2019 13:00:00 18,3 8,0 19,8 11,5 10,0 10 5 16 9 SW 996,1 19 0 0,0
23.04.2019 12:00:00 17,5 9,1 18,2 11,4 10,0 9 5 16 8 SW 996,2 18 0 0,0
23.04.2019 11:00:00 16,5 9,9 17,7 11,4 10,0 9 5 15 8 S 996,6 19 0 0,0
23.04.2019 10:00:00 15,9 9,3 14,7 11,4 10,0 7 4 14 8 SW 996,3 20 0 0,0
23.04.2019 09:00:00 13,9 8,7 12,2 11,5 10,0 10 5 13 7 S 996,6 20 0 0,0
23.04.2019 08:00:00 12,7 8,0 10,7 11,5 10,0 11 6 20 11 S 996,6 18 0 0,0
23.04.2019 07:00:00 11,9 8,0 10,6 11,6 10,0 10 5 16 9 SE 996,7 15 0 0,0
23.04.2019 06:00:00 12,4 8,1 11,0 11,6 10,0 9 5 23 13 SSE 997,0 16 0 0,0
23.04.2019 05:00:00 13,8 7,8 12,7 11,7 9,9 17 9 27 15 ESE 997,1 18 0 0,0
23.04.2019 04:00:00 14,7 7,5 13,6 11,7 9,9 18 10 36 20 ESE 997,6 20 0 0,0
23.04.2019 03:00:00 14,2 7,5 12,8 11,8 9,9 20 11 41 22 ESE 998,2 15 0 0,0
23.04.2019 02:00:00 13,5 8,3 12,1 11,8 9,9 18 10 26 14 E 998,9 11 0 0,0
23.04.2019 01:00:00 14,0 8,2 12,8 11,8 9,9 12 6 24 13 E 999,5 17 0 0,0
23.04.2019 00:00:00 14,4 7,7 13,0 11,9 9,9 12 6 20 11 E 1000,0 20 0 0,0
22.04.2019 23:00:00 14,4 8,3 12,9 11,9 9,9 11 6 19 10 E 1000,8 20 0 0,0
22.04.2019 22:00:00 13,8 9,0 13,0 11,9 9,9 13 7 18 10 ESE 1001,2 16 0 0,0
22.04.2019 21:00:00 14,5 9,9 13,5 11,9 9,9 8 5 15 8 E 1001,1 16 17 0,0
22.04.2019 20:00:00 16,0 10,1 15,3 11,9 9,9 7 4 10 5 E 1001,2 28 0 0,0
22.04.2019 19:00:00 15,6 9,9 15,4 11,8 9,9 8 4 34 18 SSE 1001,7 20 0 0,0
22.04.2019 18:00:00 17,8 10,2 18,3 11,7 9,9 12 6 18 10 ENE 1002,1 20 19 0,0
22.04.2019 17:00:00 17,8 10,4 20,8 11,6 9,9 8 4 18 10 NNE 1002,5 16 2 0,0
22.04.2019 16:00:00 20,8 6,7 22,5 11,5 9,9 10 5 25 14 S 1002,7 20 21 0,0
22.04.2019 15:00:00 20,6 7,2 24,5 11,3 9,8 16 9 33 18 SSW 1003,4 55 51 0,0
22.04.2019 14:00:00 20,7 9,3 25,9 11,1 9,8 20 11 33 18 S 1003,9 20 60 0,0
22.04.2019 13:00:00 20,5 11,4 25,8 11,1 9,8 16 9 23 13 S 1004,2 18 60 0,0
22.04.2019 12:00:00 19,5 12,3 23,6 11,0 9,8 16 8 23 12 S 1004,9 12 60 0,0
22.04.2019 11:00:00 17,6 11,2 21,2 11,0 9,8 13 7 26 14 S 1005,3 11 60 0,0
22.04.2019 10:00:00 16,6 9,5 16,3 11,0 9,8 17 9 23 12 S 1005,7 15 60 0,0
22.04.2019 09:00:00 13,6 8,4 11,2 11,1 9,8 10 6 18 10 SSE 1006,3 10 2 0,0
22.04.2019 08:00:00 11,6 7,9 9,3 11,1 9,8 13 7 22 12 SSE 1006,9 6 0 0,0
22.04.2019 07:00:00 11,7 6,8 7,5 11,2 9,8 10 6 17 9 S 1007,2 8 0 0,0
22.04.2019 06:00:00 9,4 6,8 7,5 11,3 9,8 11 6 16 9 S 1008,0 4,9 0 0,0
22.04.2019 05:00:00 11,7 7,4 8,8 11,3 9,8 13 7 18 10 SE 1008,8 7 0 0,0
22.04.2019 04:00:00 11,3 6,6 9,6 11,4 9,8 9 5 14 7 SE 1009,7 9 0 0,0
22.04.2019 03:00:00 11,5 6,6 9,4 11,5 9,8 10 5 15 8 SSE 1010,6 10 0 0,0
22.04.2019 02:00:00 12,0 6,5 10,3 11,6 9,8 13 7 18 10 SE 1011,5 12 0 0,0
22.04.2019 01:00:00 13,3 5,9 11,4 11,6 9,8 14 8 24 13 ESE 1012,2 13 0 0,0
22.04.2019 00:00:00 13,2 4,6 11,3 11,7 9,8 17 9 27 14 E 1013,0 16 0 0,0
21.04.2019 23:00:00 13,3 5,2 10,6 11,7 9,8 12 6 19 10 ESE 1013,7 12 0 0,0
21.04.2019 22:00:00 12,7 5,6 10,9 11,7 9,7 11 6 18 10 ESE 1014,3 10 0 0,0
21.04.2019 21:00:00 14,2 6,8 12,5 11,7 9,7 8 5 18 10 ESE 1014,7 10 31 0,0
21.04.2019 20:00:00 15,6 7,4 15,6 11,6 9,7 15 8 21 12 E 1014,9 9 60 0,0
21.04.2019 19:00:00 16,7 7,6 17,7 11,5 9,7 14 8 21 11 E 1015,3 7 60 0,0
21.04.2019 18:00:00 17,6 7,3 22,3 11,3 9,7 11 6 17 9 NE 1015,8 8 60 0,0
21.04.2019 17:00:00 17,7 8,8 23,7 11,2 9,7 11 6 22 12 ENE 1016,6 8 60 0,0
21.04.2019 16:00:00 16,9 7,8 23,8 11,0 9,7 14 8 20 11 NE 1017,5 7 60 0,0
21.04.2019 15:00:00 17,1 9,0 24,6 10,8 9,7 13 7 19 11 NE 1018,2 8 60 0,0
21.04.2019 14:00:00 17,1 9,3 24,4 10,7 9,7 11 6 20 11 NE 1019,2 9 60 0,0
21.04.2019 13:00:00 16,9 9,1 22,8 10,6 9,7 13 7 22 12 ENE 1019,8 8 60 0,0
21.04.2019 12:00:00 16,2 8,2 21,2 10,6 9,7 15 8 23 12 ENE 1020,3 10 60 0,0
21.04.2019 11:00:00 15,7 7,7 20,4 10,5 9,7 14 8 24 13 ENE 1021,0 10 60 0,0
21.04.2019 10:00:00 14,8 7,6 16,8 10,6 9,6 16 8 23 12 NE 1021,6 13 60 0,0
21.04.2019 09:00:00 12,8 6,8 11,2 10,6 9,6 15 8 22 12 NE 1022,0 11 60 0,0
21.04.2019 08:00:00 10,4 6,5 7,0 10,7 9,7 13 7 18 10 NNE 1022,3 7 4 0,0
21.04.2019 07:00:00 9,3 6,4 5,8 10,8 9,6 13 7 18 10 NNE 1022,4 6 0 0,0
21.04.2019 06:00:00 8,8 6,6 5,1 10,9 9,6 11 6 14 7 NNE 1022,9 6 0 0,0
21.04.2019 05:00:00 9,0 6,3 5,4 10,9 9,6 9 5 14 7 NNE 1023,4 6 0 0,0
21.04.2019 04:00:00 9,5 6,4 3,9 11,0 9,6 9 5 17 9 NE 1024,0 7 0 0,0
21.04.2019 03:00:00 10,8 6,0 8,9 11,1 9,6 12 7 21 12 ENE 1024,6 9 0 0,0
21.04.2019 02:00:00 12,0 5,8 10,5 11,1 9,6 16 8 26 14 ENE 1025,4 12 0 0,0
21.04.2019 01:00:00 12,6 6,0 11,1 11,2 9,6 16 9 26 14 E 1026,0 17 0 0,0
21.04.2019 00:00:00 12,9 5,6 11,4 11,3 9,6 15 8 27 14 E 1026,5 20 0 0,0
20.04.2019 23:00:00 13,8 4,9 11,6 11,3 9,6 18 10 32 17 E 1026,5 37 0 0,0
20.04.2019 22:00:00 13,5 5,1 11,8 11,3 9,6 13 7 32 17 E 1026,5 37 0 0,0
20.04.2019 21:00:00 14,6 4,8 13,2 11,3 9,6 20 11 37 20 E 1026,4 44 29 0,0
20.04.2019 20:00:00 15,6 6,0 16,4 11,2 9,6 20 11 32 18 ENE 1026,2 20 60 0,0
20.04.2019 19:00:00 16,8 7,4 19,8 11,1 9,6 15 8 30 16 ENE 1026,3 13 60 0,0
20.04.2019 18:00:00 16,9 7,8 21,5 10,9 9,5 16 8 27 15 ENE 1026,7 11 60 0,0
20.04.2019 17:00:00 16,6 8,5 21,8 10,8 9,6 18 10 32 17 ENE 1027,2 9 60 0,0
20.04.2019 16:00:00 16,8 8,5 21,7 10,7 9,6 19 11 33 18 ENE 1027,9 8 60 0,0
20.04.2019 15:00:00 16,4 9,1 22,2 10,6 9,6 20 11 33 18 ENE 1028,3 9 60 0,0
20.04.2019 14:00:00 15,9 9,1 22,1 10,4 9,5 16 9 26 14 ENE 1028,8 8 60 0,0
20.04.2019 13:00:00 15,3 8,8 22,2 10,3 9,5 16 9 29 16 NE 1029,3 10 60 0,0
20.04.2019 12:00:00 15,2 8,4 20,2 10,3 9,5 15 8 55 30 NE 1029,5 10 60 0,0
20.04.2019 11:00:00 15,4 8,8 19,9 10,3 9,5 14 8 28 15 NE 1029,5 10 60 0,0
20.04.2019 10:00:00 14,5 7,5 16,8 10,3 9,5 16 9 27 15 NE 1029,5 11 60 0,0
20.04.2019 09:00:00 13,4 7,4 11,8 10,4 9,5 12 7 20 11 NE 1029,7 11 56 0,0
20.04.2019 08:00:00 11,3 6,6 7,1 10,4 9,5 13 7 19 10 NE 1029,6 10 0 0,0
20.04.2019 07:00:00 9,8 5,8 6,4 10,5 9,5 11 6 17 9 NNE 1029,5 10 0 0,0
20.04.2019 06:00:00 9,9 5,9 6,4 10,6 9,5 11 6 16 8 NE 1029,4 9 0 0,0
20.04.2019 05:00:00 9,9 6,1 6,4 10,6 9,5 11 6 15 8 NNE 1029,6 9 0 0,0
20.04.2019 04:00:00 10,0 6,0 6,8 10,7 9,5 9 5 17 9 NNE 1029,4 9 0 0,0
20.04.2019 03:00:00 10,9 6,8 7,7 10,8 9,5 10 6 17 9 NNE 1029,3 8 0 0,0
20.04.2019 02:00:00 10,6 7,1 7,9 10,8 9,5 9 5 16 9 N 1029,3 7 0 0,0
20.04.2019 01:00:00 10,9 7,2 4,3 10,9 9,5 11 6 18 10 N 1029,6 7 0 0,0
20.04.2019 00:00:00 8,8 7,6 3,5 11,0 9,4 6 3 11 6 NNW 1030,0 3,4 0 0,0
19.04.2019 23:00:00 9,9 7,0 6,0 11,1 9,5 7 4 16 9 N 1029,7 6 0 0,0
19.04.2019 22:00:00 11,3 6,8 8,1 11,1 9,4 9 5 17 9 NE 1029,2 9 0 0,0
19.04.2019 21:00:00 12,5 7,0 10,3 11,0 9,4 9 5 22 12 ENE 1028,4 11 28 0,0
19.04.2019 20:00:00 14,9 7,0 15,6 11,0 9,4 16 9 30 16 ENE 1027,9 14 60 0,0
19.04.2019 19:00:00 17,0 7,6 19,8 10,9 9,4 16 9 30 16 ENE 1027,2 12 60 0,0
19.04.2019 18:00:00 17,8 8,1 18,5 10,7 9,4 19 10 30 16 ENE 1027,1 12 55 0,0
19.04.2019 17:00:00 17,7 8,5 21,3 10,6 9,4 19 10 29 16 ENE 1027,1 12 60 0,0
19.04.2019 16:00:00 16,6 8,8 17,1 10,4 9,4 16 8 26 14 ENE 1027,3 10 28 0,0
19.04.2019 15:00:00 16,6 9,5 24,4 10,2 9,4 16 9 22 12 NE 1027,0 9 60 0,0
19.04.2019 14:00:00 16,9 9,3 23,2 10,1 9,4 13 7 20 11 NE 1026,6 10 60 0,0
19.04.2019 13:00:00 17,7 9,3 21,8 10,0 9,4 13 7 22 12 ENE 1026,5 10 60 0,0
19.04.2019 12:00:00 17,2 8,9 20,4 9,9 9,4 14 8 25 14 E 1026,4 9 60 0,0
19.04.2019 11:00:00 15,7 8,7 18,6 9,9 9,4 16 9 24 13 E 1026,2 6 60 0,0
19.04.2019 10:00:00 14,3 9,1 15,2 9,9 9,4 14 8 25 14 ENE 1025,9 5 60 0,0
19.04.2019 09:00:00 11,7 8,9 11,2 9,9 9,4 14 8 22 12 ENE 1025,6 4,6 60 0,0
19.04.2019 08:00:00 10,4 8,3 7,9 10,0 9,4 14 8 19 10 ENE 1025,1 3,9 14 0,0
19.04.2019 07:00:00 9,4 7,5 7,4 10,0 9,4 12 6 18 10 ENE 1024,4 3,9 0 0,0
19.04.2019 06:00:00 9,8 7,2 8,0 10,1 9,3 14 7 18 10 ENE 1024,1 5 0 0,0
19.04.2019 05:00:00 9,8 7,4 8,5 10,1 9,4 11 6 22 12 E 1023,7 5 0 0,0
19.04.2019 04:00:00 10,7 7,6 9,2 10,2 9,4 17 9 26 14 E 1023,3 7 0 0,0
19.04.2019 03:00:00 10,6 7,3 9,3 10,3 9,4 13 7 23 12 E 1023,4 7 0 0,0
19.04.2019 02:00:00 10,8 7,3 9,5 10,3 9,3 13 7 20 11 E 1023,4 7 0 0,0
19.04.2019 01:00:00 11,6 7,1 9,8 10,3 9,3 13 7 24 13 E 1023,2 9 0 0,0
19.04.2019 00:00:00 12,0 6,5 10,2 10,3 9,3 11 6 25 14 E 1022,8 9 0 0,0
18.04.2019 23:00:00 12,0 6,9 10,7 10,4 9,3 15 8 29 15 E 1022,4 8 0 0,0
18.04.2019 22:00:00 12,7 6,9 11,5 10,4 9,3 16 9 29 16 E 1022,1 9 0 0,0
18.04.2019 21:00:00 13,3 7,3 12,4 10,4 9,3 21 11 32 17 E 1021,5 8 26 0,0
18.04.2019 20:00:00 14,3 8,0 14,0 10,3 9,3 18 10 33 18 E 1020,8 7 60 0,0
18.04.2019 19:00:00 15,4 9,3 16,5 10,2 9,3 22 12 37 20 E 1020,3 7 60 0,0
18.04.2019 18:00:00 15,7 10,2 17,1 10,1 9,3 20 11 37 20 E 1019,9 7 55 0,0
18.04.2019 17:00:00 15,5 10,3 17,6 10,0 9,3 24 13 40 22 E 1019,7 7 60 0,0
18.04.2019 16:00:00 14,8 10,2 17,4 9,9 9,3 26 14 40 22 E 1019,7 7 42 0,0
18.04.2019 15:00:00 14,5 10,1 17,6 9,8 9,3 23 12 36 19 E 1019,7 7 0 0,0
18.04.2019 14:00:00 15,4 10,8 17,4 9,6 9,3 15 8 29 16 E 1019,6 8 25 0,0
18.04.2019 13:00:00 14,1 9,9 17,4 9,6 9,3 22 12 32 17 E 1019,8 7 56 0,0
18.04.2019 12:00:00 14,0 10,4 16,2 9,5 9,3 21 12 32 17 E 1019,9 7 60 0,0
18.04.2019 11:00:00 12,7 10,1 12,6 9,6 9,3 20 11 34 19 E 1019,7 5 23 0,0
18.04.2019 10:00:00 11,2 9,6 10,8 9,6 9,3 21 11 30 16 E 1019,4 4,2 0 0,0
18.04.2019 09:00:00 10,4 9,0 10,4 9,6 9,3 19 10 32 18 E 1018,8 4,4 30 0,0
18.04.2019 08:00:00 9,9 8,7 8,5 9,6 9,2 16 9 30 16 E 1018,7 4,7 15 0,0
18.04.2019 07:00:00 9,4 8,0 8,4 9,7 9,3 14 8 29 16 ESE 1018,5 5 0 0,0
18.04.2019 06:00:00 10,0 7,9 9,1 9,7 9,2 19 11 31 17 E 1018,4 9 0 0,0
18.04.2019 05:00:00 10,1 7,5 8,9 9,7 9,2 19 11 27 14 E 1018,6 15 0 0,0
18.04.2019 04:00:00 10,8 7,3 9,2 9,7 9,3 18 10 30 16 ESE 1018,8 19 0 0,0
18.04.2019 03:00:00 10,5 7,4 9,2 9,8 9,2 15 8 31 17 ESE 1018,8 17 0 0,0
18.04.2019 02:00:00 10,8 7,5 9,8 9,8 9,3 20 11 34 18 ESE 1018,9 15 0 0,0
18.04.2019 01:00:00 10,7 7,9 10,0 9,8 9,2 19 10 30 16 E 1018,7 10 0 0,0
18.04.2019 00:00:00 10,6 8,5 10,0 9,9 9,2 21 11 35 19 E 1018,5 8 0 0,0
17.04.2019 23:00:00 10,7 8,5 9,2 9,9 9,3 22 12 36 19 E 1018,2 9 0 0,0
17.04.2019 22:00:00 9,8 7,9 8,9 9,9 9,2 17 9 33 18 E 1017,9 9 0 0,0
17.04.2019 21:00:00 9,5 7,1 8,9 9,9 9,2 21 11 32 17 E 1017,8 14 25 0,0
17.04.2019 20:00:00 10,5 7,2 10,5 9,8 9,2 18 10 29 16 E 1017,8 14 49 0,0
17.04.2019 19:00:00 11,6 8,1 12,9 9,7 9,2 20 11 35 19 E 1017,7 12 56 0,0
17.04.2019 18:00:00 12,8 8,1 15,7 9,6 9,2 21 12 33 18 E 1017,3 15 60 0,0

tt = temperature
td = dewpoint
tt 5cm = temperature 5cm
tt -20cm = temperature -20cm
tt -100cm = temperature -100cm
ff = wind speed
fx = gusts
dd = wind direction
ppp = reduced air pressure
vv = visibility
sd = sunshine duration
rr = precipitation

Next stations